Regional Weather Roundup
Issued by NWS Northern Indiana

Home | Current Version | Previous Version | Graphics & Text | Print | Product List | Glossary On
Versions: 1 2 3 4 5 6 7 8 9 10 11 12 13 14 15 16 17 18 19 20 21 22 23 24 25 26 27 28 29 30 31 32 33 34 35 36 37 38 39 40 41 42 43 44 45 46 47 48 49 50
000
ASUS43 KIWX 281400
RWRIWX

KIWX WEATHER ROUNDUP
NATIONAL WEATHER SERVICE NORTHERN INDIANA
900 AM EST FRI NOV 28 2014

NOTE: "FAIR" INDICATES FEW OR NO CLOUDS BELOW 12,000 FEET WITH NO
SIGNIFICANT WEATHER AND/OR OBSTRUCTIONS TO VISIBILITY.

* THESE STATIONS ARE NOT UNDER NWS QUALITY CONTROL. THEY ALSO MAY NOT
  REPORT WEATHER SUCH AS PRECIPITATION OR FOG.

INZ001>027-281500-
NORTHERN INDIANA

CITY           SKY/WX    TMP DP  RH WIND       PRES   REMARKS
GARY*          CLOUDY    23  14  68 SW6       30.31S WCI  16
SOUTH BEND     CLOUDY    21  15  78 S10       30.30F WCI  10
GOSHEN         CLOUDY    21  15  78 S7        30.31F WCI  12
ANGOLA*        MOSUNNY   19  16  86 S7        30.29F WCI  10
FORT WAYNE     CLOUDY    23  15  71 SE7       30.34F WCI  15
PERU/GRISSOM   CLOUDY    23  21  94 S7        30.32F WCI  14

$$
INZ028>050-281500-
CENTRAL INDIANA

CITY           SKY/WX    TMP DP  RH WIND       PRES   REMARKS
LAFAYETTE      CLOUDY    22  18  85 S7        30.33F WCI  13
KOKOMO*        PTSUNNY   23  18  80 S8        30.33F WCI  14
MUNCIE*        CLOUDY    23  16  74 S6        30.33F WCI  16
INDIANAPOLIS   CLOUDY    22  16  78 S8        30.34F WCI  12

$$
MIZ043>046-050>051-056>058-064>065-071>073-077>080-281500-
SOUTHWEST LOWER MICHIGAN

CITY           SKY/WX    TMP DP  RH WIND       PRES   REMARKS
BATTLE CREEK   CLOUDY    23  16  74 S10       30.27F WCI  12
BENTON HARBOR  CLOUDY    21  13  71 S8        30.29S WCI  11
COLDWATER*     CLOUDY    23  17  79 S5        30.28F WCI  17
HILLSDALE*     CLOUDY    21  18  87 S7        30.27F WCI  12
HOLLAND        CLOUDY    23  18  81 S8        30.28S WCI  14
GRAND RAPIDS   CLOUDY    21  15  78 S8        30.28R WCI  11
KALAMAZOO      CLOUDY    22  15  75 S9        30.29S WCI  12
STURGIS*       CLOUDY    19  16  86 S7        30.29S WCI  10
THREE RIVERS*  PTSUNNY   22  17  81 S7        30.30S WCI  13

$$
OHZ001>008-015>018-024>025-281500-
NORTHWEST OHIO

CITY           SKY/WX    TMP DP  RH WIND       PRES   REMARKS
DEFIANCE       CLOUDY    22  15  75 S3        30.35F
FINDLAY        PTSUNNY   24  18  77 SW7       30.35F WCI  16
TOLEDO EXPRESS CLOUDY    19  11  70 SE3       30.34F
TOLEDO METCALF CLOUDY    21  10  62 CALM      30.36F
LIMA           MOSUNNY   24  16  71 SW3       30.34F

$$
AND FOR LAKE MICHIGAN COASTAL AND OPEN LAKE BUOY OBSERVATIONS

STATION/POSITION TEMP    WIND        PRES    VSBY  WAVE
                 AIR SEA DIR/SP/G                  HT/PER
                 (F)     (DEG/KT/KT) (MB)    (MI)  (FT/S)
CALUMET HARBOR    21     170/  8/ 10 1024.5F
MICHIGAN CITY     21     160/  8/ 11   N/A
SAINT JOSEPH      22     140/  4/  9 1025.7F
SOUTH LAKE BUOY   26 42  200/ 12/ 16 1026.1F         1/ 6

$$
&&


USA.gov is the U.S. government's official web portal to all federal, state and local government web resources and services.